Location: Bailey Inglish Elementary School
(33.5826°N, 96.1780°W)
Time: 15:13:29
(UTC+00:00)

ISS - Pass Details

Date: 24 June 2024
Orbit: 410 x 424 km, 51.6° (Epoch: 16 July)

Event Time Altitude Azimuth Distance (km) Brightness Sun altitude
Exits shadow 10:16:20 - 283° (WNW) 1,691 -1.1 -11.2°
Reaches altitude 10° 10:17:07 10° 293° (WNW) 1,483 -1.3 -11.1°
Maximum altitude 10:19:06 15° 329° (NNW) 1,231 -1.3 -10.7°
Drops below altitude 10° 10:21:05 10° 6° (N) 1,492 -0.3 -10.4°
Sets 10:23:54 0° 31° (NNE) 2,363 1.5 -9.9°
